�N����,����,�~����,�C��,���x,�C��,����,���ϕ���,�ő�u�ԕ���,�ő厞����,���˗�,�I�_���x,�n�����x,�ő啗���N��,DTYPE
"22/09/18","00:10",0.0,24.4,87.1,1003.8,42.1,0.8,2.1,119.7,0.00,22.2,25.0,"00:09:04",1
"22/09/18","00:20",0.0,24.3,87.7,1003.6,109.2,0.7,1.4,105.8,0.00,22.2,24.8,"00:13:04",1
"22/09/18","00:30",0.0,24.3,88.2,1003.1,308.3,1.0,1.4,327.7,0.00,22.3,24.9,"00:26:56",1
"22/09/18","00:40",0.0,24.3,88.6,1003.1,347.9,0.8,2.4,307.7,0.00,22.3,24.8,"00:35:04",1
"22/09/18","00:50",0.0,24.3,89.0,1003.4,286.5,0.7,1.8,332.7,0.00,22.4,24.9,"00:40:16",1
"22/09/18","01:00",0.0,24.4,89.1,1003.4,133.6,0.5,1.7,183.7,0.00,22.5,24.8,"00:52:08",1
"22/09/18","01:10",0.0,24.4,89.3,1003.1,323.7,0.5,1.6,5.1,0.00,22.6,24.9,"01:06:40",1
"22/09/18","01:20",0.0,24.4,89.5,1003.4,4.7,0.5,1.2,307.7,0.00,22.6,25.0,"01:12:08",1
"22/09/18","01:30",0.0,24.4,89.5,1003.1,32.3,0.8,2.0,26.5,0.00,22.6,25.0,"01:28:40",1
"22/09/18","01:40",0.0,24.7,89.4,1003.1,16.3,0.5,1.9,105.0,0.00,22.9,24.7,"01:34:16",1
"22/09/18","01:50",0.0,24.7,89.5,1002.9,39.4,0.6,1.8,92.1,0.00,22.9,24.9,"01:41:04",1
"22/09/18","02:00",0.0,24.8,89.4,1003.1,47.6,0.7,1.9,7.1,0.00,23.0,25.0,"01:56:08",1
"22/09/18","02:10",0.0,24.7,89.2,1002.9,98.2,0.7,1.6,37.4,0.00,22.8,24.9,"02:06:40",1
"22/09/18","02:20",0.0,24.9,89.3,1002.9,341.8,0.6,1.7,110.7,0.00,23.1,25.0,"02:13:44",1
"22/09/18","02:30",0.0,24.9,89.3,1002.6,351.8,0.5,1.4,127.3,0.00,23.1,24.8,"02:23:52",1
"22/09/18","02:40",0.0,25.0,89.3,1002.6,24.2,0.6,1.4,326.9,0.00,23.2,24.7,"02:35:36",1
"22/09/18","02:50",0.0,25.0,89.2,1002.4,50.2,0.6,1.9,119.4,0.00,23.1,25.0,"02:48:48",1
"22/09/18","03:00",0.0,25.0,89.2,1002.6,214.1,0.3,1.2,117.8,0.00,23.1,25.0,"02:50:02",1
"22/09/18","03:10",0.0,24.9,89.2,1002.4,79.2,0.6,2.5,104.0,0.00,23.0,24.9,"03:07:06",1
"22/09/18","03:20",0.0,25.1,89.3,1002.4,45.3,0.6,2.6,115.3,0.00,23.3,24.9,"03:14:48",1
"22/09/18","03:30",0.0,25.3,89.1,1002.2,21.7,0.8,2.5,346.0,0.00,23.4,24.9,"03:26:48",1
"22/09/18","03:40",0.0,25.4,88.7,1002.2,110.7,0.8,2.0,70.3,0.00,23.4,24.8,"03:35:52",1
"22/09/18","03:50",0.0,25.5,88.5,1002.2,74.7,0.8,2.6,99.2,0.00,23.5,24.7,"03:49:20",1
"22/09/18","04:00",0.0,25.5,88.3,1001.7,63.8,1.1,2.6,116.5,0.00,23.5,25.1,"03:51:36",1
"22/09/18","04:10",0.0,25.6,88.1,1002.4,52.3,0.7,2.0,41.4,0.00,23.5,24.8,"04:01:36",1
"22/09/18","04:20",0.0,25.6,88.0,1001.9,327.4,0.7,2.2,34.2,0.00,23.5,24.7,"04:12:08",1
"22/09/18","04:30",0.0,25.6,88.0,1001.9,31.4,0.6,2.4,105.8,0.00,23.5,24.9,"04:24:24",1
"22/09/18","04:40",0.0,25.7,87.9,1001.9,55.1,1.0,2.9,42.0,0.00,23.6,24.9,"04:31:36",1
"22/09/18","04:50",0.0,25.8,87.8,1001.9,61.3,1.0,2.9,348.0,0.00,23.7,24.8,"04:42:08",1
"22/09/18","05:00",0.0,25.8,87.8,1001.9,71.1,1.2,4.1,108.1,0.00,23.7,24.8,"04:56:56",1
"22/09/18","05:10",0.0,25.7,87.8,1001.9,44.6,1.3,3.6,26.4,0.00,23.6,24.7,"05:04:08",1
"22/09/18","05:20",0.0,25.6,87.8,1001.9,69.6,1.0,4.5,121.0,0.00,23.5,25.0,"05:14:48",1
"22/09/18","05:30",0.0,25.6,87.9,1001.7,56.6,0.7,4.0,359.6,0.00,23.5,24.8,"05:29:12",1
"22/09/18","05:40",0.0,25.6,87.9,1001.9,337.3,0.5,1.9,99.7,0.00,23.5,25.0,"05:39:52",1
"22/09/18","05:50",0.0,25.7,87.8,1001.9,66.9,0.7,2.4,74.9,0.00,23.6,24.7,"05:47:20",1
"22/09/18","06:00",0.0,25.8,87.6,1001.9,109.6,0.6,1.9,101.9,0.00,23.6,24.9,"05:55:36",1
"22/09/18","06:10",0.0,25.8,87.4,1001.7,342.2,0.6,1.8,348.2,0.00,23.6,24.7,"06:03:36",1
"22/09/18","06:20",0.0,25.8,87.2,1001.7,52.0,0.7,1.9,147.0,0.00,23.5,24.9,"06:16:32",1
"22/09/18","06:30",0.0,25.9,87.1,1001.7,54.2,0.7,2.0,106.1,0.00,23.6,24.7,"06:29:44",1
"22/09/18","06:40",0.0,26.1,87.0,1001.5,83.0,1.0,2.4,164.8,0.00,23.8,24.7,"06:33:28",1
"22/09/18","06:50",0.0,26.2,87.1,1001.9,358.2,0.7,2.7,99.3,0.01,23.9,24.7,"06:45:44",1
"22/09/18","07:00",0.0,26.5,86.8,1001.9,70.6,1.1,2.5,121.3,0.02,24.2,24.8,"06:59:36",1
"22/09/18","07:10",0.0,26.5,86.4,1002.2,72.9,0.8,2.1,123.0,0.01,24.1,24.9,"07:04:00",1
"22/09/18","07:20",0.0,26.8,85.9,1002.2,114.7,1.0,3.1,146.0,0.03,24.3,24.9,"07:12:08",1
"22/09/18","07:30",0.0,27.2,85.0,1001.7,95.7,0.8,2.4,87.1,0.03,24.5,24.7,"07:27:12",1
"22/09/18","07:40",0.0,27.5,84.3,1001.7,103.8,0.6,1.8,111.4,0.06,24.7,24.7,"07:39:28",1
"22/09/18","07:50",0.0,28.2,82.4,1001.9,105.4,1.1,2.2,118.5,0.10,25.0,24.8,"07:40:32",1
"22/09/18","08:00",0.0,28.6,80.1,1001.7,87.2,1.3,3.7,122.0,0.15,24.9,24.8,"07:51:44",1
"22/09/18","08:10",0.0,29.0,78.4,1001.5,99.1,1.2,4.2,142.3,0.17,24.9,25.0,"08:09:28",1
"22/09/18","08:20",0.0,28.7,77.6,1001.0,107.4,1.5,3.2,130.5,0.12,24.4,24.9,"08:12:24",1
"22/09/18","08:30",0.0,29.0,78.6,1001.0,109.9,1.5,3.6,95.3,0.20,24.9,24.8,"08:22:40",1
"22/09/18","08:40",0.0,29.3,77.0,1001.2,121.8,1.3,2.7,104.3,0.21,24.9,24.9,"08:36:56",1
"22/09/18","08:50",0.0,29.8,75.5,1001.5,99.1,1.5,3.5,73.8,0.28,25.0,24.8,"08:46:40",1
"22/09/18","09:00",0.0,29.6,75.1,1001.5,101.2,1.6,4.4,114.0,0.20,24.8,25.0,"08:51:12",1
"22/09/18","09:10",0.0,28.8,76.7,1001.0,87.4,1.6,3.7,105.0,0.06,24.3,25.0,"09:04:32",1
"22/09/18","09:20",0.0,28.6,78.4,1001.0,84.5,1.5,4.2,82.5,0.09,24.5,25.1,"09:19:44",1
"22/09/18","09:30",0.0,28.5,79.1,1000.5,94.4,1.3,4.8,81.0,0.09,24.6,25.1,"09:23:12",1
"22/09/18","09:40",0.0,28.5,79.8,1000.5,71.8,1.5,3.5,113.1,0.12,24.7,25.2,"09:34:16",1
"22/09/18","09:50",0.0,29.2,79.0,1000.3,102.3,1.5,3.5,108.7,0.23,25.2,25.2,"09:41:20",1
"22/09/18","10:00",0.0,29.0,78.0,1000.8,94.4,1.5,3.5,128.4,0.12,24.8,25.2,"09:59:44",1
"22/09/18","10:10",0.0,29.4,79.4,1000.3,113.0,1.3,5.0,104.0,0.26,25.5,25.4,"10:01:28",1
"22/09/18","10:20",0.0,29.9,77.0,1000.3,106.2,1.5,3.6,116.9,0.33,25.5,25.3,"10:19:04",1
"22/09/18","10:30",0.0,30.2,75.5,1000.8,94.8,1.7,4.5,134.3,0.35,25.4,25.3,"10:24:48",1
"22/09/18","10:40",0.0,30.2,75.6,1000.5,98.4,2.0,4.4,67.2,0.35,25.4,25.3,"10:30:56",1
"22/09/18","10:50",0.0,30.4,74.5,1000.5,92.1,1.7,3.7,74.5,0.31,25.4,25.6,"10:44:40",1
"22/09/18","11:00",0.0,30.5,73.1,1000.3,94.4,1.7,4.5,105.0,0.30,25.2,25.4,"10:51:20",1
"22/09/18","11:10",0.0,30.2,73.4,1000.8,90.4,1.8,4.3,100.9,0.25,25.0,25.6,"11:09:12",1
"22/09/18","11:20",0.0,30.5,73.0,1000.3,97.6,1.7,5.1,121.4,0.32,25.1,25.5,"11:12:24",1
"22/09/18","11:30",0.0,30.7,71.5,1000.8,107.2,1.8,4.4,82.5,0.33,25.0,25.6,"11:29:04",1
"22/09/18","11:40",0.0,30.8,71.0,999.8,92.2,2.1,3.7,84.0,0.32,25.0,25.8,"11:30:08",1
"22/09/18","11:50",0.0,31.1,70.6,1000.0,99.3,1.6,4.9,94.7,0.30,25.2,25.7,"11:47:20",1
"22/09/18","12:00",0.0,31.1,69.8,1000.3,96.8,1.6,3.7,105.3,0.29,25.0,25.8,"11:59:20",1
"22/09/18","12:10",0.0,30.9,71.4,1000.0,92.4,1.8,4.5,103.9,0.28,25.2,25.7,"12:00:56",1
"22/09/18","12:20",0.0,30.7,71.2,1000.0,84.5,1.5,4.3,102.4,0.19,24.9,25.8,"12:14:32",1
"22/09/18","12:30",0.0,30.6,72.5,999.6,104.3,1.6,4.1,176.1,0.20,25.1,26.0,"12:24:40",1
"22/09/18","12:40",0.0,30.7,71.6,999.8,95.0,1.8,4.7,109.9,0.29,25.0,26.1,"12:38:16",1
"22/09/18","12:50",0.0,31.0,71.4,999.8,109.2,1.8,5.4,147.3,0.28,25.3,26.0,"12:42:00",1
"22/09/18","13:00",0.0,31.1,70.6,999.8,101.9,1.6,4.1,106.0,0.28,25.2,26.2,"12:54:32",1
"22/09/18","13:10",0.0,30.5,70.9,999.3,87.5,1.7,5.2,72.9,0.12,24.7,26.2,"13:09:20",1
"22/09/18","13:20",0.0,30.0,73.0,999.1,68.9,1.6,5.0,57.4,0.05,24.7,26.2,"13:13:36",1
"22/09/18","13:30",0.0,30.1,73.8,999.1,105.5,1.7,5.2,170.9,0.13,24.9,26.2,"13:24:48",1
"22/09/18","13:40",0.0,30.4,73.6,998.9,92.5,1.6,3.7,111.5,0.22,25.2,26.2,"13:32:48",1
"22/09/18","13:50",0.0,30.8,72.4,999.1,80.2,1.8,4.4,95.0,0.27,25.3,26.3,"13:49:04",1
"22/09/18","14:00",0.0,31.2,70.7,999.3,93.8,1.6,4.7,106.5,0.28,25.3,26.2,"13:58:56",1
"22/09/18","14:10",0.0,31.2,69.6,999.3,107.1,1.7,5.1,98.0,0.23,25.0,26.1,"14:07:44",1
"22/09/18","14:20",0.0,31.2,69.1,998.9,97.5,1.7,5.0,51.6,0.22,24.9,26.4,"14:12:08",1
"22/09/18","14:30",0.0,31.1,69.5,998.6,93.0,1.8,4.7,124.7,0.18,24.9,26.2,"14:22:48",1
"22/09/18","14:40",0.0,30.8,70.3,998.4,87.7,2.1,5.8,21.4,0.17,24.8,26.3,"14:34:56",1
"22/09/18","14:50",0.0,30.6,71.5,997.9,79.3,1.7,3.4,85.9,0.11,24.9,26.4,"14:44:40",1
"22/09/18","15:00",0.0,30.4,72.3,997.9,81.6,1.5,3.4,90.1,0.08,24.9,26.5,"14:55:28",1
"22/09/18","15:10",0.0,30.0,73.1,998.2,87.5,1.8,5.1,83.9,0.05,24.7,26.5,"15:09:36",1
"22/09/18","15:20",0.0,30.0,73.3,997.7,87.8,1.6,4.3,100.6,0.10,24.7,26.3,"15:16:40",1
"22/09/18","15:30",0.0,30.3,72.6,997.9,85.0,1.6,3.2,92.5,0.12,24.9,26.4,"15:27:36",1
"22/09/18","15:40",0.0,30.2,72.8,997.4,86.5,1.5,3.9,118.8,0.08,24.8,26.3,"15:33:12",1
"22/09/18","15:50",0.0,30.1,72.6,997.2,87.8,1.2,3.2,52.8,0.06,24.7,26.4,"15:44:16",1
"22/09/18","16:00",0.0,30.1,72.5,997.2,98.7,1.6,4.0,156.2,0.07,24.6,26.3,"15:58:48",1
"22/09/18","16:10",0.0,30.1,72.3,997.0,95.2,1.3,3.5,112.5,0.05,24.6,26.3,"16:00:48",1
"22/09/18","16:20",0.0,29.9,72.8,997.0,86.2,1.2,3.6,48.9,0.05,24.5,26.6,"16:14:56",1
"22/09/18","16:30",0.0,29.8,73.3,996.7,88.3,1.3,2.7,106.5,0.03,24.5,26.4,"16:20:24",1
"22/09/18","16:40",0.0,29.6,73.8,996.7,73.5,1.1,3.4,109.6,0.02,24.5,26.4,"16:37:44",1
"22/09/18","16:50",0.0,29.4,73.8,996.3,84.9,1.6,4.5,97.5,0.01,24.3,26.4,"16:42:00",1
"22/09/18","17:00",0.0,29.4,74.2,996.0,80.1,1.3,4.0,132.2,0.00,24.4,26.4,"16:54:00",1
"22/09/18","17:10",0.0,29.3,75.0,996.5,86.7,1.5,4.5,98.3,0.01,24.4,26.5,"17:00:48",1
"22/09/18","17:20",0.0,29.3,75.5,996.0,98.0,1.7,3.6,182.9,0.01,24.6,26.4,"17:12:00",1
"22/09/18","17:30",0.0,29.1,76.3,996.0,94.0,1.6,3.3,119.4,0.01,24.5,26.4,"17:26:48",1
"22/09/18","17:40",0.0,29.0,76.7,996.5,87.5,1.8,4.9,64.1,0.00,24.5,26.2,"17:35:20",1
"22/09/18","17:50",0.0,28.9,77.3,996.0,92.4,1.7,4.1,48.4,0.00,24.6,26.5,"17:48:08",1
"22/09/18","18:00",0.0,28.8,77.7,996.3,87.7,1.3,3.4,103.8,0.00,24.6,26.3,"17:58:00",1
"22/09/18","18:10",0.0,28.7,78.5,996.3,91.2,1.6,4.7,54.7,0.00,24.6,26.3,"18:08:16",1
"22/09/18","18:20",0.0,28.6,78.8,996.3,75.8,1.3,2.9,60.7,0.00,24.6,26.3,"18:15:28",1
"22/09/18","18:30",0.0,28.5,79.2,996.7,92.8,1.5,3.5,114.3,0.00,24.6,26.3,"18:29:04",1
"22/09/18","18:40",0.0,28.5,79.6,996.7,70.9,1.3,2.8,104.5,0.00,24.7,26.2,"18:31:20",1
"22/09/18","18:50",0.0,28.4,80.1,996.7,94.2,1.2,3.3,92.6,0.00,24.7,26.3,"18:41:52",1
"22/09/18","19:00",0.0,28.3,80.3,997.2,59.8,1.2,3.2,89.7,0.00,24.6,26.4,"18:54:56",1
"22/09/18","19:10",0.0,28.3,80.4,997.0,71.5,1.0,2.5,54.5,0.00,24.6,26.3,"19:08:08",1
"22/09/18","19:20",0.0,28.4,80.1,996.7,90.9,1.2,2.8,171.0,0.00,24.7,26.2,"19:16:56",1
"22/09/18","19:30",0.0,28.4,80.1,996.7,82.4,1.2,3.6,124.2,0.00,24.7,26.2,"19:23:12",1
"22/09/18","19:40",0.0,28.4,80.2,996.7,95.9,1.3,4.0,127.4,0.00,24.7,26.0,"19:30:24",1
"22/09/18","19:50",0.0,28.5,79.9,996.7,101.4,1.5,3.4,88.1,0.00,24.7,26.0,"19:47:04",1
"22/09/18","20:00",0.0,28.5,79.5,997.0,83.6,1.5,3.7,81.6,0.00,24.6,26.0,"19:50:40",1
"22/09/18","20:10",0.0,28.7,79.1,996.5,86.1,1.6,4.1,100.5,0.00,24.8,26.3,"20:07:28",1
"22/09/18","20:20",0.0,28.7,78.9,997.0,89.1,1.6,3.9,69.5,0.00,24.7,26.0,"20:10:40",1
"22/09/18","20:30",0.0,28.7,78.7,996.7,101.3,1.7,4.1,182.2,0.00,24.7,26.1,"20:22:24",1
"22/09/18","20:40",0.0,28.7,78.5,996.7,105.8,1.6,4.8,112.9,0.00,24.6,26.1,"20:31:52",1
"22/09/18","20:50",0.0,28.7,78.4,997.2,110.3,1.6,4.9,115.1,0.00,24.6,26.1,"20:46:00",1
"22/09/18","21:00",0.0,28.6,78.6,996.7,99.7,1.3,3.5,81.8,0.00,24.6,25.9,"20:59:20",1
"22/09/18","21:10",0.0,28.6,78.7,996.5,85.7,1.5,3.1,128.9,0.00,24.6,26.2,"21:07:28",1
"22/09/18","21:20",0.0,28.6,79.0,996.5,87.5,1.3,2.8,85.7,0.00,24.6,26.1,"21:16:32",1
"22/09/18","21:30",0.0,28.6,79.3,996.7,99.2,1.5,4.5,92.7,0.00,24.7,26.1,"21:26:08",1
"22/09/18","21:40",0.0,28.6,79.1,996.7,88.5,1.5,4.1,86.7,0.00,24.7,26.1,"21:36:40",1
"22/09/18","21:50",0.0,28.7,79.1,996.5,84.1,1.2,3.6,97.1,0.00,24.8,26.2,"21:41:12",1
"22/09/18","22:00",0.0,28.6,78.9,996.5,79.9,1.7,4.3,114.9,0.00,24.6,26.1,"21:50:56",1
"22/09/18","22:10",0.0,28.7,78.3,996.3,86.2,1.5,4.5,38.1,0.00,24.6,26.1,"22:00:56",1
"22/09/18","22:20",0.0,28.6,78.4,996.0,89.2,1.6,3.7,115.6,0.00,24.5,25.9,"22:11:36",1
"22/09/18","22:30",0.0,28.6,78.2,996.3,118.6,1.8,5.5,88.5,0.00,24.5,25.9,"22:28:56",1
"22/09/18","22:40",0.0,28.6,77.6,995.8,105.3,1.6,3.4,127.4,0.00,24.3,25.9,"22:32:08",1
"22/09/18","22:50",0.0,28.6,77.4,996.0,82.4,1.5,3.9,128.4,0.00,24.3,25.9,"22:49:04",1
"22/09/18","23:00",0.0,28.6,77.6,995.6,84.2,1.3,3.1,98.4,0.00,24.3,25.8,"22:54:32",1
"22/09/18","23:10",0.0,28.5,77.6,995.3,94.7,1.7,4.8,112.0,0.00,24.2,26.1,"23:09:36",1
"22/09/18","23:20",0.0,28.4,77.2,995.6,87.4,1.7,4.1,135.2,0.00,24.1,26.0,"23:13:44",1
"22/09/18","23:30",0.0,28.5,76.8,995.3,97.6,1.6,6.0,106.4,0.00,24.1,26.1,"23:21:12",1
"22/09/18","23:40",0.0,28.4,76.4,995.3,91.6,1.3,3.7,76.8,0.00,23.9,26.0,"23:37:52",1
"22/09/18","23:50",0.0,28.6,75.8,995.1,89.9,1.8,3.2,149.3,0.00,23.9,25.8,"23:49:04",1
"22/09/18","24:00",0.0,28.5,75.6,994.6,94.2,1.6,5.8,113.7,0.00,23.8,25.9,"23:54:48",1
